TimeMST,TemperatureF,Dew PointF,Humidity,Sea Level PressureIn,VisibilityMPH,Wind Direction,Wind SpeedMPH,Gust SpeedMPH,PrecipitationIn,Events,Conditions,WindDirDegrees,DateUTC
12:51 AM,55.0,28.0,35,29.65,8.0,WSW,35.7,46.0,N/A,,Mostly Cloudy,240,2013-03-09 07:51:00
1:51 AM,55.9,26.1,32,29.60,8.0,WSW,51.8,65.6,N/A,,Overcast,240,2013-03-09 08:51:00
2:51 AM,51.1,32.0,48,29.66,7.0,West,38.0,48.3,N/A,,Overcast,260,2013-03-09 09:51:00
3:51 AM,46.9,30.9,54,29.67,9.0,West,42.6,49.5,N/A,,Overcast,260,2013-03-09 10:51:00
4:51 AM,44.1,30.0,58,29.69,9.0,WSW,40.3,49.5,N/A,,Overcast,250,2013-03-09 11:51:00
5:51 AM,42.1,28.9,60,29.73,9.0,West,38.0,47.2,N/A,,Mostly Cloudy,260,2013-03-09 12:51:00
6:51 AM,41.0,27.0,57,29.74,8.0,West,41.4,50.6,N/A,,Partly Cloudy,260,2013-03-09 13:51:00
7:51 AM,43.0,26.1,51,29.74,8.0,WSW,36.8,50.6,N/A,,Mostly Cloudy,250,2013-03-09 14:51:00
8:51 AM,45.0,26.1,48,29.75,9.0,WSW,38.0,47.2,N/A,,Partly Cloudy,250,2013-03-09 15:51:00
9:51 AM,48.0,25.0,41,29.74,9.0,WSW,36.8,54.1,N/A,,Clear,250,2013-03-09 16:51:00
10:51 AM,48.9,24.1,38,29.73,8.0,WSW,48.3,56.4,N/A,,Mostly Cloudy,250,2013-03-09 17:51:00
11:51 AM,50.0,24.1,36,29.71,8.0,WSW,43.7,56.4,N/A,,Overcast,240,2013-03-09 18:51:00
12:51 PM,52.0,21.9,31,29.68,6.0,WSW,46.0,57.5,N/A,,Haze,250,2013-03-09 19:51:00
1:51 PM,54.0,19.9,26,29.64,7.0,WSW,46.0,63.3,N/A,,Partly Cloudy,250,2013-03-09 20:51:00
2:51 PM,54.0,18.0,24,29.65,7.0,WSW,41.4,57.5,N/A,,Partly Cloudy,240,2013-03-09 21:51:00
3:51 PM,54.0,12.9,20,29.69,6.0,WSW,36.8,56.4,N/A,,Haze,250,2013-03-09 22:51:00
4:51 PM,52.0,15.1,23,29.72,7.0,WSW,36.8,48.3,N/A,,Clear,250,2013-03-09 23:51:00
5:51 PM,46.9,16.0,29,29.78,6.0,West,31.1,47.2,N/A,,Haze,270,2013-03-10 00:51:00
6:51 PM,43.0,16.0,34,29.81,9.0,West,36.8,46.0,N/A,,Clear,280,2013-03-10 01:51:00
7:51 PM,43.0,17.1,35,29.84,9.0,West,21.9,43.7,N/A,,Partly Cloudy,280,2013-03-10 02:51:00
8:00 PM,43.0,17.1,35,29.90,10.0,West,34.5,54.1,N/A,,Squalls,280,2013-03-10 03:00:00
8:51 PM,42.1,18.0,38,29.82,10.0,West,35.7,51.8,N/A,,Clear,260,2013-03-10 03:51:00
9:51 PM,39.9,19.9,45,29.80,9.0,West,41.4,56.4,N/A,,Clear,260,2013-03-10 04:51:00
10:51 PM,39.9,21.9,49,29.88,10.0,West,25.3,38.0,N/A,,Clear,280,2013-03-10 05:51:00
11:51 PM,39.0,21.9,50,29.89,10.0,West,18.4,29.9,N/A,,Clear,260,2013-03-10 06:51:00